Home > Weather > Sanandaj > Past weeks

Flag for Iran Past Weather in Sanandaj, Iran — Yesterday and Last 2 Weeks

Now
88 °F

Clear.


Feels Like: 84 °F
Forecast: 60 / 94 °F
Wind: 9 mph from West

Location: Sanandaj Airport

Current Time: Jul 26, 2016 at 10:36:15 PM

Latest Report: Jul 26, 2016 at 9:23 PM


Visibility: 5 mi

Pressure: 29.86 "Hg (25.22 "Hg at 1502m altitude)

Humidity: 13%

Dew Point: 32 °F

Location of SanandajLocation

Past Weather in Sanandaj — Graph

°F

Sanandaj Temperature Yesterday

Maximum temperature yesterday: 99 °F (at 3:20 PM)
Minimum temperature yesterday: 63 °F (at 6:25 AM)
Average temperature yesterday: 81 °F

High & Low Weather Summary for the Past Weeks

 TemperatureHumidityPressure
High106 °F (Jul 16, 4:30 PM)52% (Jul 13, 7:30 AM)30.15 "Hg (Jul 13, 7:30 AM)
Low61 °F (Jul 12, 6:30 AM)6% (Jul 15, 3:30 PM)28.85 "Hg (Jul 21, 7:30 AM)
Average85 °F22%29.88 "Hg
* Reported Jul 11 9:20 PM — Jul 26 9:23 PM, Sanandaj, Weather by CustomWeather, © 2016

Note: Actual official high and low records may vary slightly from our data, if they occured in-between our weather recording intervals... More about our weather records

Advertising

Sanandaj Weather History for the Previous 24 Hours

Scroll right to see more
 ConditionsComfort  
Time TempWeatherWind HumidityBarometerVisibility
9:23 PM
Tue, Jul 26
88 °FClear.9 mph13%29.86 "Hg5 mi
8:24 PM90 °FClear.9 mph13%29.86 "Hg5 mi
7:21 PM93 °FSunny.9 mph11%29.83 "Hg10 mi
6:22 PM95 °FSunny.7 mph10%29.83 "Hg10 mi
5:21 PM95 °FSunny.7 mph10%29.83 "Hg10 mi
4:30 PM95 °FSunny.7 mph10%29.86 "Hg10 mi
3:30 PM95 °FSunny.7 mph10%29.86 "Hg10 mi
2:30 PM93 °FSunny.5 mph10%29.86 "Hg10 mi
1:30 PM93 °FSunny.5 mph10%29.89 "Hg10 mi
12:30 PM91 °FClear.5 mph12%29.89 "Hg6 mi
11:30 AM88 °FClear.2 mph15%29.92 "Hg6 mi
10:30 AM82 °FClear.2 mph19%29.92 "Hg6 mi
10:00 AM81 °FClear.2 mph21%29.92 "Hg6 mi
9:30 AM79 °FClear.2 mph23%29.95 "Hg6 mi
9:00 AM75 °FClear.No wind27%29.95 "Hg6 mi
8:30 AM72 °FClear.No wind31%29.95 "Hg6 mi
8:00 AM66 °FClear.No wind40%29.92 "Hg5 mi
7:30 AM63 °FClear.No wind45%29.92 "Hg5 mi
7:00 AM61 °FClear.No wind48%29.92 "Hg5 mi
6:30 AM61 °FClear.No wind48%29.92 "Hg6 mi
5:24 AM63 °FClear.No wind49%29.89 "Hg10 mi
4:25 AM64 °FClear.No wind37%29.89 "Hg10 mi
3:23 AM66 °FClear.No wind35%29.89 "Hg10 mi
2:25 AM70 °FClear.No wind38%29.89 "Hg10 mi
1:25 AM73 °FClear.No wind27%29.89 "Hg10 mi
12:26 AM75 °FClear.No wind29%29.89 "Hg10 mi
11:25 PM
Mon, Jul 25
79 °FClear.2 mph23%29.89 "Hg10 mi
10:21 PM84 °FClear.2 mph16%29.89 "Hg10 mi
Weather by CustomWeather, © 2016

See weather overviewHow to use our weather pages